Location: Aytr�
(46.1357°N, 1.1145°W)
Time: 13:13:09
(UTC+00:00)

Nauka - Pass Details

Date: 23 September 2021
Orbit: 418 x 423 km, 51.6° (Epoch: 18 October)

Event Time Altitude Azimuth Distance (km) Brightness Sun altitude
Rises 19:37:49 0° 278° (W) 2,363 ? -17.5°
Reaches altitude 10° 19:40:03 10° 288° (WNW) 1,501 ? -17.9°
Maximum altitude 19:43:07 32° 354° (N) 752 ? -18.4°
Enters shadow 19:44:17 25° 33° (NNE) 901 ? -18.6°
